Location: ???????
(56.2167°N, 38.0500°E)
Time: 09:17:15
(UTC+00:00)

Cosmos 1536 - Pass Details

Date: 19 May 2025
Orbit: 495 x 518 km, 82.5° (Epoch: 12 June)

Event Time Altitude Azimuth Distance (km) Brightness Sun altitude
Rises 19:53:53 0° 343° (NNW) 2,648 8.5 -11.5°
Reaches altitude 10° 19:56:06 10° 337° (NNW) 1,752 7.0 -11.6°
Maximum altitude 19:59:45 43° 266° (W) 731 3.6 -11.8°
Enters shadow 20:02:50 13° 197° (SSW) 1,534 4.6 -11.9°
